Time,TemperatureF,DewpointF,PressureIn,WindDirection,WindDirectionDegrees,WindSpeedMPH,WindSpeedGustMPH,Humidity,HourlyPrecipIn,Conditions,Clouds,dailyrainin,SoftwareType,DateUTC
2013-10-04 00:00:00,49.3,41.4,29.95,WSW,245,2.0,3.0,74,0.00,,,0.00,Wunderground v.1.15,2013-10-04 04:00:00,
2013-10-04 00:35:00,47.7,40.8,29.95,WSW,240,0.0,0.0,77,0.00,,,0.00,Wunderground v.1.15,2013-10-04 04:35:00,
2013-10-04 00:45:00,47.2,41.0,29.95,WSW,239,1.0,3.0,79,0.00,,,0.00,Wunderground v.1.15,2013-10-04 04:45:00,
2013-10-04 00:50:00,47.5,41.3,29.96,SW,230,2.0,3.0,79,0.00,,,0.00,Wunderground v.1.15,2013-10-04 04:50:00,
2013-10-04 01:00:00,47.8,41.3,29.96,SW,233,1.0,1.0,78,0.00,,,0.00,Wunderground v.1.15,2013-10-04 05:00:00,
2013-10-04 01:05:00,48.2,42.0,29.97,NW,321,1.0,2.0,79,0.00,,,0.00,Wunderground v.1.15,2013-10-04 05:05:00,
2013-10-04 01:10:00,47.8,41.3,29.97,NNW,339,2.0,2.0,78,0.00,,,0.00,Wunderground v.1.15,2013-10-04 05:10:00,
2013-10-04 01:25:00,45.4,40.5,29.98,NNW,336,0.0,0.0,83,0.00,,,0.00,Wunderground v.1.15,2013-10-04 05:25:00,
2013-10-04 01:30:00,45.0,40.5,29.98,NNW,336,0.0,0.0,84,0.00,,,0.00,Wunderground v.1.15,2013-10-04 05:30:00,
2013-10-04 01:35:00,45.0,40.5,29.98,NNW,336,0.0,0.0,84,0.00,,,0.00,Wunderground v.1.15,2013-10-04 05:35:00,
2013-10-04 01:40:00,46.2,41.6,29.98,West,269,1.0,1.0,84,0.00,,,0.00,Wunderground v.1.15,2013-10-04 05:40:00,
2013-10-04 01:45:00,47.8,41.9,29.98,West,263,1.0,1.0,80,0.00,,,0.00,Wunderground v.1.15,2013-10-04 05:45:00,
2013-10-04 01:50:00,48.3,41.8,29.98,West,263,1.0,1.0,78,0.00,,,0.00,Wunderground v.1.15,2013-10-04 05:50:00,
2013-10-04 01:55:00,48.8,41.9,29.98,West,259,1.0,2.0,77,0.00,,,0.00,Wunderground v.1.15,2013-10-04 05:55:00,
2013-10-04 02:00:00,48.9,42.0,29.98,West,259,1.0,1.0,77,0.00,,,0.00,Wunderground v.1.15,2013-10-04 06:00:00,
2013-10-04 02:05:00,49.0,42.1,29.98,West,260,1.0,1.0,77,0.00,,,0.00,Wunderground v.1.15,2013-10-04 06:05:00,
2013-10-04 02:15:00,49.0,42.1,29.98,West,260,0.0,1.0,77,0.00,,,0.00,Wunderground v.1.15,2013-10-04 06:15:00,
2013-10-04 02:20:00,48.4,41.9,29.98,West,260,0.0,0.0,78,0.00,,,0.00,Wunderground v.1.15,2013-10-04 06:20:00,
2013-10-04 02:25:00,47.5,41.0,29.98,West,260,0.0,0.0,78,0.00,,,0.00,Wunderground v.1.15,2013-10-04 06:25:00,
2013-10-04 02:30:00,47.0,41.8,29.97,West,260,0.0,0.0,82,0.00,,,0.00,Wunderground v.1.15,2013-10-04 06:30:00,
2013-10-04 02:35:00,46.7,41.5,29.97,West,260,0.0,0.0,82,0.00,,,0.00,Wunderground v.1.15,2013-10-04 06:35:00,
2013-10-04 02:40:00,46.7,42.1,29.97,West,260,0.0,0.0,84,0.00,,,0.00,Wunderground v.1.15,2013-10-04 06:40:00,
2013-10-04 02:45:00,47.0,42.4,29.97,West,259,0.0,4.0,84,0.00,,,0.00,Wunderground v.1.15,2013-10-04 06:45:00,
2013-10-04 02:55:00,46.0,41.1,29.98,SW,227,3.0,3.0,83,0.00,,,0.00,Wunderground v.1.15,2013-10-04 06:55:00,
2013-10-04 03:00:00,45.0,40.5,29.98,SW,221,3.0,3.0,84,0.00,,,0.00,Wunderground v.1.15,2013-10-04 07:00:00,
2013-10-04 03:05:00,44.5,40.3,29.98,SW,215,3.0,4.0,85,0.00,,,0.00,Wunderground v.1.15,2013-10-04 07:05:00,
2013-10-04 03:10:00,44.1,39.9,29.98,SW,215,3.0,5.0,85,0.00,,,0.00,Wunderground v.1.15,2013-10-04 07:10:00,
2013-10-04 03:15:00,44.1,40.2,29.98,SW,223,4.0,5.0,86,0.00,,,0.00,Wunderground v.1.15,2013-10-04 07:15:00,
2013-10-04 03:25:00,44.4,41.1,29.98,SW,222,4.0,5.0,88,0.00,,,0.00,Wunderground v.1.15,2013-10-04 07:25:00,
2013-10-04 03:30:00,44.9,41.6,29.98,SW,233,4.0,4.0,88,0.00,,,0.00,Wunderground v.1.15,2013-10-04 07:30:00,
2013-10-04 03:35:00,45.0,41.4,29.98,SW,232,4.0,4.0,87,0.00,,,0.00,Wunderground v.1.15,2013-10-04 07:35:00,
2013-10-04 03:40:00,45.5,42.2,29.98,SW,232,2.0,2.0,88,0.00,,,0.00,Wunderground v.1.15,2013-10-04 07:40:00,
2013-10-04 03:45:00,45.8,42.2,29.98,WSW,257,0.0,2.0,87,0.00,,,0.00,Wunderground v.1.15,2013-10-04 07:45:00,
2013-10-04 03:50:00,46.2,42.5,29.99,West,271,0.0,6.0,87,0.00,,,0.00,Wunderground v.1.15,2013-10-04 07:50:00,
2013-10-04 03:55:00,46.8,43.1,29.99,West,271,0.0,6.0,87,0.00,,,0.00,Wunderground v.1.15,2013-10-04 07:55:00,
2013-10-04 04:00:00,47.0,42.7,29.99,West,271,0.0,0.0,85,0.00,,,0.00,Wunderground v.1.15,2013-10-04 08:00:00,
2013-10-04 04:05:00,46.9,42.6,29.99,West,263,0.0,5.0,85,0.00,,,0.00,Wunderground v.1.15,2013-10-04 08:05:00,
2013-10-04 04:10:00,47.2,42.9,29.99,WSW,240,2.0,4.0,85,0.00,,,0.00,Wunderground v.1.15,2013-10-04 08:10:00,
2013-10-04 04:15:00,47.4,42.8,29.98,SW,233,3.0,4.0,84,0.00,,,0.00,Wunderground v.1.15,2013-10-04 08:15:00,
2013-10-04 04:20:00,46.8,41.9,29.99,SW,233,3.0,3.0,83,0.00,,,0.00,Wunderground v.1.15,2013-10-04 08:20:00,
2013-10-04 04:30:00,45.7,41.4,30.00,WSW,243,2.0,2.0,85,0.00,,,0.00,Wunderground v.1.15,2013-10-04 08:30:00,
2013-10-04 04:35:00,45.5,41.3,29.99,WSW,243,1.0,2.0,85,0.00,,,0.00,Wunderground v.1.15,2013-10-04 08:35:00,
2013-10-04 04:40:00,45.0,40.5,30.00,WSW,242,0.0,0.0,84,0.00,,,0.00,Wunderground v.1.15,2013-10-04 08:40:00,
2013-10-04 04:45:00,44.3,40.1,30.00,WSW,243,0.0,0.0,85,0.00,,,0.00,Wunderground v.1.15,2013-10-04 08:45:00,
2013-10-04 04:50:00,43.8,39.9,30.00,WSW,243,0.0,0.0,86,0.00,,,0.00,Wunderground v.1.15,2013-10-04 08:50:00,
2013-10-04 04:55:00,43.6,40.3,30.00,West,271,0.0,0.0,88,0.00,,,0.00,Wunderground v.1.15,2013-10-04 08:55:00,
2013-10-04 05:00:00,43.6,40.3,30.00,West,273,0.0,0.0,88,0.00,,,0.00,Wunderground v.1.15,2013-10-04 09:00:00,
2013-10-04 05:05:00,43.4,39.8,30.01,West,273,0.0,0.0,87,0.00,,,0.00,Wunderground v.1.15,2013-10-04 09:05:00,
2013-10-04 05:10:00,43.5,40.5,30.01,North,349,0.0,2.0,89,0.00,,,0.00,Wunderground v.1.15,2013-10-04 09:10:00,
2013-10-04 05:15:00,43.6,40.3,30.01,North,349,0.0,2.0,88,0.00,,,0.00,Wunderground v.1.15,2013-10-04 09:15:00,
2013-10-04 05:25:00,43.3,40.3,30.01,NNW,347,0.0,0.0,89,0.00,,,0.00,Wunderground v.1.15,2013-10-04 09:25:00,
2013-10-04 05:30:00,44.0,40.7,30.01,West,275,1.0,2.0,88,0.00,,,0.00,Wunderground v.1.15,2013-10-04 09:30:00,
2013-10-04 05:35:00,45.2,41.0,30.01,WSW,249,3.0,3.0,85,0.00,,,0.00,Wunderground v.1.15,2013-10-04 09:35:00,
2013-10-04 05:40:00,45.9,41.0,30.01,West,276,4.0,4.0,83,0.00,,,0.00,Wunderground v.1.15,2013-10-04 09:40:00,
2013-10-04 05:45:00,46.3,41.1,30.01,West,281,4.0,4.0,82,0.00,,,0.00,Wunderground v.1.15,2013-10-04 09:45:00,
2013-10-04 05:50:00,46.3,40.8,30.01,West,262,3.0,3.0,81,0.00,,,0.00,Wunderground v.1.15,2013-10-04 09:50:00,
2013-10-04 05:55:00,46.3,40.5,30.02,West,276,3.0,5.0,80,0.00,,,0.00,Wunderground v.1.15,2013-10-04 09:55:00,
2013-10-04 06:00:00,46.3,40.1,30.02,West,275,4.0,4.0,79,0.00,,,0.00,Wunderground v.1.15,2013-10-04 10:00:00,
2013-10-04 06:05:00,46.1,39.9,30.02,West,268,3.0,4.0,79,0.00,,,0.00,Wunderground v.1.15,2013-10-04 10:05:00,
2013-10-04 06:10:00,45.9,39.8,30.02,WNW,294,2.0,2.0,79,0.00,,,0.00,Wunderground v.1.15,2013-10-04 10:10:00,
2013-10-04 06:15:00,46.0,39.5,30.03,NW,306,3.0,3.0,78,0.00,,,0.00,Wunderground v.1.15,2013-10-04 10:15:00,
2013-10-04 06:20:00,45.8,39.3,30.03,NW,306,2.0,2.0,78,0.00,,,0.00,Wunderground v.1.15,2013-10-04 10:20:00,
2013-10-04 06:25:00,45.2,39.1,30.03,NW,306,0.0,2.0,79,0.00,,,0.00,Wunderground v.1.15,2013-10-04 10:25:00,
2013-10-04 06:30:00,44.8,38.7,30.03,West,275,1.0,1.0,79,0.00,,,0.00,Wunderground v.1.15,2013-10-04 10:30:00,
2013-10-04 06:35:00,44.9,38.8,30.04,West,275,2.0,2.0,79,0.00,,,0.00,Wunderground v.1.15,2013-10-04 10:35:00,
2013-10-04 06:40:00,44.8,38.7,30.04,West,275,1.0,1.0,79,0.00,,,0.00,Wunderground v.1.15,2013-10-04 10:40:00,
2013-10-04 06:45:00,44.4,38.3,30.04,West,275,0.0,1.0,79,0.00,,,0.00,Wunderground v.1.15,2013-10-04 10:45:00,
2013-10-04 06:50:00,44.3,38.2,30.04,West,275,0.0,2.0,79,0.00,,,0.00,Wunderground v.1.15,2013-10-04 10:50:00,
2013-10-04 06:55:00,44.3,38.5,30.04,WNW,292,1.0,2.0,80,0.00,,,0.00,Wunderground v.1.15,2013-10-04 10:55:00,
2013-10-04 07:05:00,44.6,38.5,30.04,WNW,284,2.0,5.0,79,0.00,,,0.00,Wunderground v.1.15,2013-10-04 11:05:00,
2013-10-04 07:10:00,44.8,38.7,30.04,WNW,300,3.0,3.0,79,0.00,,,0.00,Wunderground v.1.15,2013-10-04 11:10:00,
2013-10-04 07:15:00,45.1,38.6,30.04,West,280,3.0,3.0,78,0.00,,,0.00,Wunderground v.1.15,2013-10-04 11:15:00,
2013-10-04 07:20:00,45.2,38.4,30.04,West,269,4.0,4.0,77,0.00,,,0.00,Wunderground v.1.15,2013-10-04 11:20:00,
2013-10-04 07:25:00,45.2,38.4,30.04,WNW,286,4.0,4.0,77,0.00,,,0.00,Wunderground v.1.15,2013-10-04 11:25:00,
2013-10-04 07:30:00,45.3,38.5,30.05,WNW,302,3.0,3.0,77,0.00,,,0.00,Wunderground v.1.15,2013-10-04 11:30:00,
2013-10-04 07:35:00,45.4,38.6,30.05,West,280,2.0,3.0,77,0.00,,,0.00,Wunderground v.1.15,2013-10-04 11:35:00,
2013-10-04 07:40:00,45.6,38.8,30.05,West,275,2.0,4.0,77,0.00,,,0.00,Wunderground v.1.15,2013-10-04 11:40:00,
2013-10-04 07:45:00,45.8,38.3,30.05,WNW,297,3.0,4.0,75,0.00,,,0.00,Wunderground v.1.15,2013-10-04 11:45:00,
2013-10-04 07:50:00,46.0,38.2,30.05,West,280,3.0,7.0,74,0.00,,,0.00,Wunderground v.1.15,2013-10-04 11:50:00,
2013-10-04 07:55:00,46.2,38.0,30.05,WNW,286,3.0,7.0,73,0.00,,,0.00,Wunderground v.1.15,2013-10-04 11:55:00,
2013-10-04 08:00:00,46.5,38.0,30.05,WNW,286,5.0,5.0,72,0.00,,,0.00,Wunderground v.1.15,2013-10-04 12:00:00,
2013-10-04 08:05:00,46.6,37.3,30.05,West,275,8.0,8.0,70,0.00,,,0.00,Wunderground v.1.15,2013-10-04 12:05:00,
2013-10-04 08:10:00,46.7,38.1,30.06,West,273,7.0,7.0,72,0.00,,,0.00,Wunderground v.1.15,2013-10-04 12:10:00,
2013-10-04 08:15:00,46.9,37.6,30.06,WNW,295,6.0,7.0,70,0.00,,,0.00,Wunderground v.1.15,2013-10-04 12:15:00,
2013-10-04 08:20:00,46.9,37.6,30.06,WNW,289,6.0,6.0,70,0.00,,,0.00,Wunderground v.1.15,2013-10-04 12:20:00,
2013-10-04 08:25:00,47.2,37.5,30.06,WNW,295,6.0,6.0,69,0.00,,,0.00,Wunderground v.1.15,2013-10-04 12:25:00,
2013-10-04 08:30:00,47.4,37.7,30.06,WNW,288,6.0,6.0,69,0.00,,,0.00,Wunderground v.1.15,2013-10-04 12:30:00,
2013-10-04 08:40:00,47.6,37.6,30.07,WNW,283,6.0,8.0,68,0.00,,,0.00,Wunderground v.1.15,2013-10-04 12:40:00,
2013-10-04 08:45:00,47.8,37.0,30.07,WNW,301,7.0,8.0,66,0.00,,,0.00,Wunderground v.1.15,2013-10-04 12:45:00,
2013-10-04 08:50:00,48.0,37.6,30.07,NW,306,7.0,9.0,67,0.00,,,0.00,Wunderground v.1.15,2013-10-04 12:50:00,
2013-10-04 08:55:00,48.2,37.4,30.07,WNW,303,7.0,9.0,66,0.00,,,0.00,Wunderground v.1.15,2013-10-04 12:55:00,
2013-10-04 09:00:00,48.3,36.3,30.07,WNW,292,7.0,7.0,63,0.00,,,0.00,Wunderground v.1.15,2013-10-04 13:00:00,
2013-10-04 09:05:00,48.5,36.5,30.07,NW,321,8.0,12.0,63,0.00,,,0.00,Wunderground v.1.15,2013-10-04 13:05:00,
2013-10-04 09:10:00,48.5,35.7,30.07,WNW,303,9.0,11.0,61,0.00,,,0.00,Wunderground v.1.15,2013-10-04 13:10:00,
2013-10-04 09:15:00,48.8,35.9,30.06,WNW,295,9.0,11.0,61,0.00,,,0.00,Wunderground v.1.15,2013-10-04 13:15:00,
2013-10-04 09:25:00,49.2,36.3,30.06,West,263,8.0,12.0,61,0.00,,,0.00,Wunderground v.1.15,2013-10-04 13:25:00,
2013-10-04 09:30:00,49.1,35.8,30.06,West,279,10.0,12.0,60,0.00,,,0.00,Wunderground v.1.15,2013-10-04 13:30:00,
2013-10-04 09:35:00,49.2,35.9,30.06,NW,317,10.0,12.0,60,0.00,,,0.00,Wunderground v.1.15,2013-10-04 13:35:00,
2013-10-04 09:40:00,49.5,35.8,30.06,NW,315,9.0,13.0,59,0.00,,,0.00,Wunderground v.1.15,2013-10-04 13:40:00,
2013-10-04 09:45:00,49.8,36.0,30.06,NW,311,8.0,13.0,59,0.00,,,0.00,Wunderground v.1.15,2013-10-04 13:45:00,
2013-10-04 09:55:00,50.3,35.2,30.06,NW,315,7.0,12.0,56,0.00,,,0.00,Wunderground v.1.15,2013-10-04 13:55:00,
2013-10-04 10:00:00,50.4,35.7,30.07,NW,313,7.0,7.0,57,0.00,,,0.00,Wunderground v.1.15,2013-10-04 14:00:00,
2013-10-04 10:05:00,50.6,34.6,30.06,West,269,7.0,9.0,54,0.00,,,0.00,Wunderground v.1.15,2013-10-04 14:05:00,
2013-10-04 10:15:00,51.0,34.5,30.07,NNW,327,8.0,15.0,53,0.00,,,0.00,Wunderground v.1.15,2013-10-04 14:15:00,
2013-10-04 10:20:00,51.3,32.8,30.07,WNW,286,9.0,13.0,49,0.00,,,0.00,Wunderground v.1.15,2013-10-04 14:20:00,
2013-10-04 10:25:00,51.5,33.5,30.07,NW,317,10.0,13.0,50,0.00,,,0.00,Wunderground v.1.15,2013-10-04 14:25:00,
2013-10-04 10:30:00,51.8,32.7,30.07,North,355,11.0,12.0,48,0.00,,,0.00,Wunderground v.1.15,2013-10-04 14:30:00,
2013-10-04 10:35:00,51.8,33.2,30.07,NW,319,10.0,12.0,49,0.00,,,0.00,Wunderground v.1.15,2013-10-04 14:35:00,
2013-10-04 10:40:00,52.1,34.0,30.07,NNW,340,10.0,10.0,50,0.00,,,0.00,Wunderground v.1.15,2013-10-04 14:40:00,
2013-10-04 10:45:00,51.9,33.3,30.06,NNW,337,10.0,11.0,49,0.00,,,0.00,Wunderground v.1.15,2013-10-04 14:45:00,
2013-10-04 10:50:00,52.2,33.6,30.06,WNW,286,10.0,10.0,49,0.00,,,0.00,Wunderground v.1.15,2013-10-04 14:50:00,
2013-10-04 10:55:00,52.3,33.7,30.06,NW,313,9.0,15.0,49,0.00,,,0.00,Wunderground v.1.15,2013-10-04 14:55:00,
2013-10-04 11:00:00,52.8,33.6,30.06,West,275,9.0,9.0,48,0.00,,,0.00,Wunderground v.1.15,2013-10-04 15:00:00,
2013-10-04 11:05:00,52.9,35.2,30.05,NNW,340,10.0,10.0,51,0.00,,,0.00,Wunderground v.1.15,2013-10-04 15:05:00,
2013-10-04 11:10:00,53.1,35.4,30.05,NW,317,10.0,11.0,51,0.00,,,0.00,Wunderground v.1.15,2013-10-04 15:10:00,
2013-10-04 11:15:00,53.2,35.5,30.05,WSW,257,9.0,12.0,51,0.00,,,0.00,Wunderground v.1.15,2013-10-04 15:15:00,
2013-10-04 11:25:00,53.2,36.0,30.05,NW,315,8.0,12.0,52,0.00,,,0.00,Wunderground v.1.15,2013-10-04 15:25:00,
2013-10-04 11:30:00,53.2,36.5,30.05,WNW,282,7.0,10.0,53,0.00,,,0.00,Wunderground v.1.15,2013-10-04 15:30:00,
2013-10-04 11:40:00,53.7,36.5,30.04,West,261,6.0,10.0,52,0.00,,,0.00,Wunderground v.1.15,2013-10-04 15:40:00,
2013-10-04 11:45:00,53.8,36.1,30.04,West,277,8.0,10.0,51,0.00,,,0.00,Wunderground v.1.15,2013-10-04 15:45:00,
2013-10-04 11:50:00,53.8,36.6,30.04,NW,309,8.0,8.0,52,0.00,,,0.00,Wunderground v.1.15,2013-10-04 15:50:00,
2013-10-04 11:55:00,53.7,35.5,30.04,West,271,9.0,10.0,50,0.00,,,0.00,Wunderground v.1.15,2013-10-04 15:55:00,
2013-10-04 12:00:00,53.7,36.5,30.05,WNW,292,9.0,9.0,52,0.00,,,0.00,Wunderground v.1.15,2013-10-04 16:00:00,
2013-10-04 12:05:00,53.5,35.3,30.05,West,277,8.0,9.0,50,0.00,,,0.00,Wunderground v.1.15,2013-10-04 16:05:00,
2013-10-04 12:10:00,53.8,36.6,30.04,West,260,8.0,8.0,52,0.00,,,0.00,Wunderground v.1.15,2013-10-04 16:10:00,
2013-10-04 12:15:00,53.8,37.1,30.04,WNW,300,9.0,9.0,53,0.00,,,0.00,Wunderground v.1.15,2013-10-04 16:15:00,
2013-10-04 12:20:00,54.2,37.4,30.04,NW,317,9.0,9.0,53,0.00,,,0.00,Wunderground v.1.15,2013-10-04 16:20:00,
2013-10-04 12:25:00,54.5,36.7,30.04,West,270,6.0,9.0,51,0.00,,,0.00,Wunderground v.1.15,2013-10-04 16:25:00,
2013-10-04 12:30:00,54.5,36.2,30.04,WNW,290,8.0,9.0,50,0.00,,,0.00,Wunderground v.1.15,2013-10-04 16:30:00,
2013-10-04 12:35:00,54.6,36.8,30.04,West,267,8.0,9.0,51,0.00,,,0.00,Wunderground v.1.15,2013-10-04 16:35:00,
2013-10-04 12:40:00,54.9,37.1,30.04,West,280,7.0,8.0,51,0.00,,,0.00,Wunderground v.1.15,2013-10-04 16:40:00,
2013-10-04 12:45:00,54.4,36.6,30.04,West,269,8.0,8.0,51,0.00,,,0.00,Wunderground v.1.15,2013-10-04 16:45:00,
2013-10-04 12:50:00,54.8,37.5,30.03,NW,305,7.0,7.0,52,0.00,,,0.00,Wunderground v.1.15,2013-10-04 16:50:00,
2013-10-04 12:55:00,55.1,36.3,30.03,NW,307,5.0,9.0,49,0.00,,,0.00,Wunderground v.1.15,2013-10-04 16:55:00,
2013-10-04 13:00:00,55.0,37.2,30.03,WNW,288,7.0,7.0,51,0.00,,,0.00,Wunderground v.1.15,2013-10-04 17:00:00,
2013-10-04 13:05:00,55.1,36.8,30.03,NW,321,7.0,9.0,50,0.00,,,0.00,Wunderground v.1.15,2013-10-04 17:05:00,
2013-10-04 13:10:00,55.2,36.9,30.03,WNW,287,6.0,10.0,50,0.00,,,0.00,Wunderground v.1.15,2013-10-04 17:10:00,
2013-10-04 13:15:00,55.3,36.5,30.03,West,276,7.0,10.0,49,0.00,,,0.00,Wunderground v.1.15,2013-10-04 17:15:00,
2013-10-04 13:20:00,55.2,36.4,30.03,WNW,284,8.0,8.0,49,0.00,,,0.00,Wunderground v.1.15,2013-10-04 17:20:00,
2013-10-04 13:25:00,55.2,36.9,30.03,WNW,286,9.0,9.0,50,0.00,,,0.00,Wunderground v.1.15,2013-10-04 17:25:00,
2013-10-04 13:30:00,55.3,35.9,30.03,NW,317,8.0,8.0,48,0.00,,,0.00,Wunderground v.1.15,2013-10-04 17:30:00,
2013-10-04 13:35:00,55.4,36.5,30.03,WNW,303,8.0,8.0,49,0.00,,,0.00,Wunderground v.1.15,2013-10-04 17:35:00,
2013-10-04 14:00:00,55.2,38.4,30.03,NW,317,7.0,7.0,53,0.00,,,0.00,Wunderground v.1.15,2013-10-04 18:00:00,
2013-10-04 14:05:00,55.6,37.7,30.02,NW,319,6.0,7.0,51,0.00,,,0.00,Wunderground v.1.15,2013-10-04 18:05:00,
2013-10-04 14:10:00,55.6,37.2,30.02,WNW,295,8.0,8.0,50,0.00,,,0.00,Wunderground v.1.15,2013-10-04 18:10:00,
2013-10-04 14:15:00,55.8,37.9,30.03,NW,307,7.0,8.0,51,0.00,,,0.00,Wunderground v.1.15,2013-10-04 18:15:00,
2013-10-04 14:20:00,56.0,37.1,30.03,NW,311,5.0,10.0,49,0.00,,,0.00,Wunderground v.1.15,2013-10-04 18:20:00,
2013-10-04 14:25:00,56.2,37.8,30.03,NNW,342,5.0,10.0,50,0.00,,,0.00,Wunderground v.1.15,2013-10-04 18:25:00,
2013-10-04 14:30:00,56.1,37.7,30.03,NW,319,6.0,10.0,50,0.00,,,0.00,Wunderground v.1.15,2013-10-04 18:30:00,
2013-10-04 14:40:00,56.2,37.8,30.03,NW,319,8.0,8.0,50,0.00,,,0.00,Wunderground v.1.15,2013-10-04 18:40:00,
2013-10-04 14:45:00,56.3,37.4,30.03,WNW,292,6.0,8.0,49,0.00,,,0.00,Wunderground v.1.15,2013-10-04 18:45:00,
2013-10-04 14:50:00,56.5,37.6,30.04,NW,315,6.0,6.0,49,0.00,,,0.00,Wunderground v.1.15,2013-10-04 18:50:00,
2013-10-04 14:55:00,56.5,38.1,30.04,NW,309,7.0,10.0,50,0.00,,,0.00,Wunderground v.1.15,2013-10-04 18:55:00,
2013-10-04 15:00:00,56.4,37.5,30.04,NW,311,7.0,7.0,49,0.00,,,0.00,Wunderground v.1.15,2013-10-04 19:00:00,
2013-10-04 15:05:00,56.2,38.3,30.04,WNW,290,6.0,7.0,51,0.00,,,0.00,Wunderground v.1.15,2013-10-04 19:05:00,
2013-10-04 15:10:00,56.3,38.4,30.03,North,355,7.0,7.0,51,0.00,,,0.00,Wunderground v.1.15,2013-10-04 19:10:00,
2013-10-04 15:15:00,56.4,38.5,30.04,NNW,327,6.0,11.0,51,0.00,,,0.00,Wunderground v.1.15,2013-10-04 19:15:00,
2013-10-04 15:20:00,56.6,38.2,30.04,WNW,286,5.0,7.0,50,0.00,,,0.00,Wunderground v.1.15,2013-10-04 19:20:00,
2013-10-04 15:25:00,56.7,37.7,30.03,WNW,286,6.0,7.0,49,0.00,,,0.00,Wunderground v.1.15,2013-10-04 19:25:00,
2013-10-04 15:30:00,56.4,38.5,30.03,NNW,329,9.0,11.0,51,0.00,,,0.00,Wunderground v.1.15,2013-10-04 19:30:00,
2013-10-04 15:35:00,56.4,38.0,30.04,NNW,342,9.0,11.0,50,0.00,,,0.00,Wunderground v.1.15,2013-10-04 19:35:00,
2013-10-04 15:40:00,56.4,38.0,30.04,North,355,7.0,9.0,50,0.00,,,0.00,Wunderground v.1.15,2013-10-04 19:40:00,
2013-10-04 15:45:00,56.2,37.8,30.04,WNW,294,8.0,9.0,50,0.00,,,0.00,Wunderground v.1.15,2013-10-04 19:45:00,
2013-10-04 15:50:00,55.8,38.4,30.04,North,5,7.0,7.0,52,0.00,,,0.00,Wunderground v.1.15,2013-10-04 19:50:00,
2013-10-04 15:55:00,55.4,38.1,30.03,NNE,18,7.0,7.0,52,0.00,,,0.00,Wunderground v.1.15,2013-10-04 19:55:00,
2013-10-04 16:00:00,55.4,38.1,30.03,NNW,343,9.0,9.0,52,0.00,,,0.00,Wunderground v.1.15,2013-10-04 20:00:00,
2013-10-04 16:05:00,55.5,38.1,30.03,NW,308,7.0,9.0,52,0.00,,,0.00,Wunderground v.1.15,2013-10-04 20:05:00,
2013-10-04 16:10:00,55.3,38.0,30.03,NW,316,6.0,6.0,52,0.00,,,0.00,Wunderground v.1.15,2013-10-04 20:10:00,
2013-10-04 16:15:00,55.1,38.7,30.03,NNW,348,5.0,6.0,54,0.00,,,0.00,Wunderground v.1.15,2013-10-04 20:15:00,
2013-10-04 16:20:00,54.9,38.6,30.03,NW,304,5.0,6.0,54,0.00,,,0.00,Wunderground v.1.15,2013-10-04 20:20:00,
2013-10-04 16:25:00,54.9,38.6,30.04,NNW,347,6.0,6.0,54,0.00,,,0.00,Wunderground v.1.15,2013-10-04 20:25:00,
2013-10-04 16:30:00,54.8,38.0,30.04,NW,318,6.0,7.0,53,0.00,,,0.00,Wunderground v.1.15,2013-10-04 20:30:00,
2013-10-04 16:35:00,54.6,38.7,30.04,NNW,338,6.0,7.0,55,0.00,,,0.00,Wunderground v.1.15,2013-10-04 20:35:00,
2013-10-04 16:45:00,54.1,38.7,30.04,North,5,5.0,9.0,56,0.00,,,0.00,Wunderground v.1.15,2013-10-04 20:45:00,
2013-10-04 16:50:00,54.0,37.7,30.04,NNW,331,5.0,7.0,54,0.00,,,0.00,Wunderground v.1.15,2013-10-04 20:50:00,
2013-10-04 17:00:00,54.1,38.3,30.05,NW,319,6.0,6.0,55,0.00,,,0.00,Wunderground v.1.15,2013-10-04 21:00:00,
2013-10-04 17:05:00,54.2,38.8,30.05,WNW,301,4.0,6.0,56,0.00,,,0.00,Wunderground v.1.15,2013-10-04 21:05:00,
2013-10-04 17:10:00,54.2,38.4,30.05,NW,314,4.0,10.0,55,0.00,,,0.00,Wunderground v.1.15,2013-10-04 21:10:00,
2013-10-04 17:15:00,53.9,38.1,30.06,NW,310,4.0,10.0,55,0.00,,,0.00,Wunderground v.1.15,2013-10-04 21:15:00,
2013-10-04 17:20:00,53.6,37.8,30.06,NW,309,4.0,5.0,55,0.00,,,0.00,Wunderground v.1.15,2013-10-04 21:20:00,
2013-10-04 17:30:00,53.0,37.7,30.06,NNW,327,5.0,6.0,56,0.00,,,0.00,Wunderground v.1.15,2013-10-04 21:30:00,
2013-10-04 17:35:00,52.9,38.1,30.06,North,351,5.0,6.0,57,0.00,,,0.00,Wunderground v.1.15,2013-10-04 21:35:00,
2013-10-04 17:40:00,52.7,38.3,30.06,NNW,329,4.0,4.0,58,0.00,,,0.00,Wunderground v.1.15,2013-10-04 21:40:00,
2013-10-04 17:45:00,52.3,38.4,30.06,NNW,331,2.0,4.0,59,0.00,,,0.00,Wunderground v.1.15,2013-10-04 21:45:00,
2013-10-04 17:50:00,52.1,38.2,30.06,North,355,1.0,4.0,59,0.00,,,0.00,Wunderground v.1.15,2013-10-04 21:50:00,
2013-10-04 17:55:00,51.7,38.3,30.06,NW,326,1.0,4.0,60,0.00,,,0.00,Wunderground v.1.15,2013-10-04 21:55:00,
2013-10-04 18:00:00,51.5,38.5,30.06,NNW,340,1.0,1.0,61,0.00,,,0.00,Wunderground v.1.15,2013-10-04 22:00:00,
2013-10-04 18:10:00,50.9,38.3,30.07,NNW,328,1.0,1.0,62,0.00,,,0.00,Wunderground v.1.15,2013-10-04 22:10:00,
2013-10-04 18:15:00,50.7,38.1,30.07,NW,318,0.0,1.0,62,0.00,,,0.00,Wunderground v.1.15,2013-10-04 22:15:00,
2013-10-04 18:20:00,50.4,38.3,30.07,NW,318,0.0,0.0,63,0.00,,,0.00,Wunderground v.1.15,2013-10-04 22:20:00,
2013-10-04 18:25:00,50.0,37.9,30.07,NW,318,0.0,0.0,63,0.00,,,0.00,Wunderground v.1.15,2013-10-04 22:25:00,
2013-10-04 18:30:00,49.6,37.9,30.08,NW,318,0.0,0.0,64,0.00,,,0.00,Wunderground v.1.15,2013-10-04 22:30:00,
2013-10-04 18:35:00,49.3,38.0,30.08,NW,318,0.0,0.0,65,0.00,,,0.00,Wunderground v.1.15,2013-10-04 22:35:00,
2013-10-04 18:40:00,49.0,38.1,30.08,NW,318,0.0,0.0,66,0.00,,,0.00,Wunderground v.1.15,2013-10-04 22:40:00,
2013-10-04 18:45:00,48.5,38.0,30.08,NW,318,0.0,0.0,67,0.00,,,0.00,Wunderground v.1.15,2013-10-04 22:45:00,
2013-10-04 18:50:00,48.1,37.7,30.08,NW,318,0.0,0.0,67,0.00,,,0.00,Wunderground v.1.15,2013-10-04 22:50:00,
2013-10-04 18:55:00,48.0,37.9,30.09,NW,318,0.0,0.0,68,0.00,,,0.00,Wunderground v.1.15,2013-10-04 22:55:00,
2013-10-04 19:00:00,48.0,37.6,30.09,NW,318,0.0,0.0,67,0.00,,,0.00,Wunderground v.1.15,2013-10-04 23:00:00,
2013-10-04 19:05:00,47.8,37.7,30.08,NW,318,0.0,0.0,68,0.00,,,0.00,Wunderground v.1.15,2013-10-04 23:05:00,
2013-10-04 19:15:00,47.0,37.7,30.08,NW,318,0.0,0.0,70,0.00,,,0.00,Wunderground v.1.15,2013-10-04 23:15:00,
2013-10-04 19:20:00,47.0,37.7,30.09,NW,318,0.0,0.0,70,0.00,,,0.00,Wunderground v.1.15,2013-10-04 23:20:00,
2013-10-04 19:25:00,47.0,37.7,30.09,NW,318,0.0,0.0,70,0.00,,,0.00,Wunderground v.1.15,2013-10-04 23:25:00,
2013-10-04 19:30:00,46.8,37.5,30.09,NW,318,0.0,0.0,70,0.00,,,0.00,Wunderground v.1.15,2013-10-04 23:30:00,
2013-10-04 19:35:00,46.6,37.3,30.09,NW,318,0.0,0.0,70,0.00,,,0.00,Wunderground v.1.15,2013-10-04 23:35:00,
2013-10-04 19:40:00,46.2,37.3,30.09,West,278,1.0,1.0,71,0.00,,,0.00,Wunderground v.1.15,2013-10-04 23:40:00,
2013-10-04 19:45:00,46.0,37.5,30.09,West,278,1.0,1.0,72,0.00,,,0.00,Wunderground v.1.15,2013-10-04 23:45:00,
2013-10-04 19:50:00,46.0,37.5,30.10,West,277,0.0,0.0,72,0.00,,,0.00,Wunderground v.1.15,2013-10-04 23:50:00,
2013-10-04 19:55:00,46.0,37.5,30.09,West,277,0.0,0.0,72,0.00,,,0.00,Wunderground v.1.15,2013-10-04 23:55:00,
2013-10-04 20:00:00,45.7,37.5,30.09,West,260,1.0,3.0,73,0.00,,,0.00,Wunderground v.1.15,2013-10-05 00:00:00,
2013-10-04 20:10:00,45.0,37.2,30.09,WSW,257,3.0,3.0,74,0.00,,,0.00,Wunderground v.1.15,2013-10-05 00:10:00,
2013-10-04 20:15:00,45.0,37.6,30.09,West,279,1.0,3.0,75,0.00,,,0.00,Wunderground v.1.15,2013-10-05 00:15:00,
2013-10-04 20:20:00,45.4,37.9,30.09,West,270,0.0,0.0,75,0.00,,,0.00,Wunderground v.1.15,2013-10-05 00:20:00,
2013-10-04 20:25:00,46.0,38.2,30.09,West,277,1.0,5.0,74,0.00,,,0.00,Wunderground v.1.15,2013-10-05 00:25:00,
2013-10-04 20:30:00,46.1,37.6,30.10,West,276,2.0,2.0,72,0.00,,,0.00,Wunderground v.1.15,2013-10-05 00:30:00,
2013-10-04 20:35:00,46.1,37.9,30.10,West,275,1.0,2.0,73,0.00,,,0.00,Wunderground v.1.15,2013-10-05 00:35:00,
2013-10-04 20:39:00,46.2,38.0,30.10,West,275,2.0,2.0,73,0.00,,,0.00,Wunderground v.1.15,2013-10-05 00:39:00,
2013-10-04 20:45:00,45.9,37.7,30.10,West,277,1.0,3.0,73,0.00,,,0.00,Wunderground v.1.15,2013-10-05 00:45:00,
2013-10-04 20:55:00,46.4,38.2,30.11,West,275,3.0,4.0,73,0.00,,,0.00,Wunderground v.1.15,2013-10-05 00:55:00,
2013-10-04 21:00:00,46.7,38.1,30.11,WNW,291,3.0,3.0,72,0.00,,,0.00,Wunderground v.1.15,2013-10-05 01:00:00,
2013-10-04 21:10:00,46.8,38.2,30.11,WNW,302,2.0,2.0,72,0.00,,,0.00,Wunderground v.1.15,2013-10-05 01:10:00,
2013-10-04 21:15:00,46.3,38.1,30.11,WNW,302,1.0,2.0,73,0.00,,,0.00,Wunderground v.1.15,2013-10-05 01:15:00,
2013-10-04 21:20:00,46.0,37.8,30.11,WNW,293,1.0,2.0,73,0.00,,,0.00,Wunderground v.1.15,2013-10-05 01:20:00,
2013-10-04 21:25:00,45.8,37.6,30.11,WNW,292,1.0,2.0,73,0.00,,,0.00,Wunderground v.1.15,2013-10-05 01:25:00,
2013-10-04 21:30:00,45.7,37.9,30.11,WNW,292,1.0,1.0,74,0.00,,,0.00,Wunderground v.1.15,2013-10-05 01:30:00,
2013-10-04 21:35:00,45.5,37.7,30.11,WNW,292,1.0,1.0,74,0.00,,,0.00,Wunderground v.1.15,2013-10-05 01:35:00,
2013-10-04 21:40:00,45.3,37.5,30.11,WNW,292,0.0,0.0,74,0.00,,,0.00,Wunderground v.1.15,2013-10-05 01:40:00,
2013-10-04 21:45:00,45.0,37.6,30.11,WNW,292,0.0,0.0,75,0.00,,,0.00,Wunderground v.1.15,2013-10-05 01:45:00,
2013-10-04 21:50:00,44.9,37.5,30.11,WNW,292,0.0,0.0,75,0.00,,,0.00,Wunderground v.1.15,2013-10-05 01:50:00,
2013-10-04 21:55:00,44.5,37.1,30.11,WNW,292,0.0,0.0,75,0.00,,,0.00,Wunderground v.1.15,2013-10-05 01:55:00,
2013-10-04 22:00:00,44.4,37.0,30.11,WNW,292,0.0,0.0,75,0.00,,,0.00,Wunderground v.1.15,2013-10-05 02:00:00,
2013-10-04 22:05:00,44.2,37.1,30.11,WNW,292,0.0,0.0,76,0.00,,,0.00,Wunderground v.1.15,2013-10-05 02:05:00,
2013-10-04 22:10:00,43.9,36.8,30.11,WNW,292,0.0,0.0,76,0.00,,,0.00,Wunderground v.1.15,2013-10-05 02:10:00,
2013-10-04 22:15:00,43.4,36.7,30.11,WNW,292,0.0,0.0,77,0.00,,,0.00,Wunderground v.1.15,2013-10-05 02:15:00,
2013-10-04 22:20:00,43.1,36.7,30.11,WNW,292,0.0,0.0,78,0.00,,,0.00,Wunderground v.1.15,2013-10-05 02:20:00,
2013-10-04 22:25:00,42.9,36.5,30.11,WNW,292,0.0,0.0,78,0.00,,,0.00,Wunderground v.1.15,2013-10-05 02:25:00,
2013-10-04 22:30:00,42.2,36.5,30.11,WNW,292,0.0,0.0,80,0.00,,,0.00,Wunderground v.1.15,2013-10-05 02:30:00,
2013-10-04 22:35:00,42.0,36.3,30.11,WNW,292,0.0,0.0,80,0.00,,,0.00,Wunderground v.1.15,2013-10-05 02:35:00,
2013-10-04 22:40:00,42.2,36.5,30.11,WNW,292,0.0,0.0,80,0.00,,,0.00,Wunderground v.1.15,2013-10-05 02:40:00,
2013-10-04 22:45:00,42.3,36.9,30.11,WNW,292,0.0,0.0,81,0.00,,,0.00,Wunderground v.1.15,2013-10-05 02:45:00,
2013-10-04 22:50:00,42.5,36.8,30.11,WNW,292,0.0,0.0,80,0.00,,,0.00,Wunderground v.1.15,2013-10-05 02:50:00,
2013-10-04 22:55:00,42.6,36.9,30.11,WNW,292,0.0,0.0,80,0.00,,,0.00,Wunderground v.1.15,2013-10-05 02:55:00,
2013-10-04 23:00:00,42.5,36.8,30.10,WNW,292,0.0,0.0,80,0.00,,,0.00,Wunderground v.1.15,2013-10-05 03:00:00,
2013-10-04 23:05:00,42.3,36.6,30.10,WNW,292,0.0,0.0,80,0.00,,,0.00,Wunderground v.1.15,2013-10-05 03:05:00,
2013-10-04 23:10:00,41.8,36.4,30.10,WNW,292,0.0,0.0,81,0.00,,,0.00,Wunderground v.1.15,2013-10-05 03:10:00,
2013-10-04 23:15:00,41.2,36.1,30.10,WNW,292,0.0,0.0,82,0.00,,,0.00,Wunderground v.1.15,2013-10-05 03:15:00,
2013-10-04 23:20:00,40.9,35.8,30.10,WNW,292,0.0,0.0,82,0.00,,,0.00,Wunderground v.1.15,2013-10-05 03:20:00,
2013-10-04 23:25:00,40.4,35.6,30.10,WNW,292,0.0,0.0,83,0.00,,,0.00,Wunderground v.1.15,2013-10-05 03:25:00,
2013-10-04 23:30:00,40.0,35.6,30.10,WNW,292,0.0,0.0,84,0.00,,,0.00,Wunderground v.1.15,2013-10-05 03:30:00,
2013-10-04 23:34:00,39.6,35.5,30.10,WNW,292,0.0,0.0,85,0.00,,,0.00,Wunderground v.1.15,2013-10-05 03:34:00,
2013-10-04 23:40:00,39.6,35.8,30.10,WNW,292,0.0,0.0,86,0.00,,,0.00,Wunderground v.1.15,2013-10-05 03:40:00,
2013-10-04 23:45:00,39.6,35.8,30.10,WNW,292,0.0,0.0,86,0.00,,,0.00,Wunderground v.1.15,2013-10-05 03:45:00,
2013-10-04 23:50:00,39.6,35.8,30.10,WNW,292,0.0,0.0,86,0.00,,,0.00,Wunderground v.1.15,2013-10-05 03:50:00,